Regional Weather Roundup
Issued by NWS Portland, ME

Home | Current Version | Previous Version | Text Only | Print | Product List | Glossary On
Versions: 1 2 3 4 5 6 7 8 9 10 11 12 13 14 15 16 17 18 19 20 21 22 23 24 25 26 27 28 29 30 31 32 33 34 35 36 37 38 39 40 41 42 43 44 45 46 47 48 49 50
000
ASUS41 KGYX 252110
RWRGYX
WEATHER ROUNDUP FOR MAINE AND NEW HAMPSHIRE
NATIONAL WEATHER SERVICE GRAY ME
400 PM EST SUN JAN 25 2015

MEZ002-005-006-010-012-015-018-020-021-024-026-027-029-252200-
MAINE

CITY           SKY/WX    TMP DP  RH WIND       PRES   REMARKS
PORTLAND       PTCLDY    29   4  34 NW13G23   29.70R WCI  19
SANFORD        CLEAR     25   1  36 W18G29    29.71R WCI  11
BAR HARBOR     CLEAR     25  12  58 W8G25     29.60R
WISCASSET      CLEAR     26   4  38 W8        29.69R
ROCKLAND       CLEAR     25   5  42 W17G24    29.65R WCI  11
FRYEBURG       FAIR      20   0  41 W18G33    29.69R WCI   5
LEWISTONAUBURN CLEAR     21   1  42 NW18G25   29.68R WCI   6
AUGUSTA        CLEAR     20   1  43 NW17G24   29.68R WCI   5
WATERVILLE     CLEAR     19   0  42 W14G26    29.64R WCI   6
BANGOR         PTCLDY    20   0  41 W9G24     29.62R
GREENVILLE       N/A      6  -5  60 W9G22     29.52R
MILLINOCKET    CLEAR     13  -3  49 W17G31    29.57R WCI  -4
HOULTON        CLEAR     13  -3  49 NW10G20   29.48R WCI   0
PRESQUE ISLE   PTCLDY    12  -6  44 W16G28    29.46R WCI  -4
FRENCHVILLE    LGT SNOW   7   1  76 W23G32    29.39R WCI -14
CARIBOU        MOCLDY    10  -3  55 W10G26    29.43R WCI  -4
$$

NHZ002-005-008-009-011-012-014-252200-
NEW HAMPSHIRE

CITY           SKY/WX    TMP DP  RH WIND       PRES   REMARKS
PORTSMOUTH     PTCLDY    28   2  34 NW21G28   29.71R WCI  14
ROCHESTER      CLEAR     26   2  35 NW13G22   29.71R WCI  15
NASHUA         CLEAR     32   3  29 NW10G22   29.74R
MANCHESTER     PTCLDY    30   3  31 NW15G22   29.73R WCI  19
CONCORD        CLEAR     26   4  38 NW18      29.74R WCI  13
LACONIA        CLEAR     23   1  39 NW13G18   29.72R WCI  11
PLYMOUTH       FAIR      21   7  55 NW10G20   29.76R WCI  10
BERLIN         CLEAR     11  -3  53 W13G28    29.70R WCI  -4
WHITEFIELD     MOCLDY    12  -2  53 W14       29.75R WCI  -3
JAFFREY        CLEAR     27   1  32 NW9G16    29.70R
KEENE          CLEAR     28   1  31 NW7       29.76R
LEBANON        CLEAR     22   2  42 NW12      29.77R WCI  10
MT WASHINGTON  BLWGSNOW -11 -11 100 NW64G76     N/A  VSB 1/16WCI -50
$$

VTZ005-007-008-252200-
VERMONT

CITY           SKY/WX    TMP DP  RH WIND       PRES   REMARKS
ST JOHNSBURY     N/A     12  -1  56 MISG      29.80R
MONTPELIER     CLEAR      9  -1  64 NW14G20   29.81R WCI  -7
BURLINGTON     PTCLDY    13  -2  51 N9        29.89R
$$

MAZ007-012-024-CTZ003-RIZ002-NYZ038-NYZ072-252200-
SOUTHERN NEW ENGLAND AND NY

CITY           SKY/WX    TMP DP  RH WIND       PRES   REMARKS
BOSTON         PTCLDY    35   8  32 W15       29.74R
WORCESTER      CLEAR     28   4  35 W16       29.71R WCI  16
NANTUCKET      CLEAR     39  19  44 W13G24    29.72R
PROVIDENCE     PTCLDY    33  10  38 NW17G25   29.76R
HARTFORD       MOCLDY    31   4  31 NW12      29.79R
ALBANY         PTCLDY    24   5  44 W14       29.88R WCI  12
NEW YORK CITY  MOCLDY    40  16  37 N12G20    29.81R
$$

ANZ081-ANZ082-ANZ150-NHZ014-MEZ023>029-252200-
COASTAL MARINE OBSERVATIONS

STATION/POSITION TIME  TEMP    WIND        PRES    WAVE
                       AIR SEA DIR/SP/G            HT/PER
                 (UTC) (F)     (DEG/KT/KT) (MB)    (FT/S)
MOUNT DESERT ROC 2100   29                 1001.8R
MATINICUS ROCK   2100          310/ 28/ 31 1003.3R
PORTLAND WX BUOY 2050   30 40  270/ 19/ 23 1004.3R   5/13
WELLS            2000   29 37  320/ 13/ 22 1004.2R
ISLE OF SHOALS   2100   30     300/ 27/ 31 1005.3R
JEFFREYS LEDGE   2021      44                N/A     7/12
CASHES LEDGE BUO 2050   34 45  280/ 25/ 29 1002.8R  10/12
$$

.............KEY..............
   WCI - WIND CHILL
   TC  - TEMPERATURE IN CELSIUS
   VSB - VISIBILITY IN MILES
   HX  - HEAT INDEX
   FAIR- INDICATES FEW OR NO CLOUDS BELOW 12,000 FT, WITH NO
         SIGNIFICANT WEATHER AND/OR OBSTRUCTIONS TO VISIBILITY.




USA.gov is the U.S. government's official web portal to all federal, state and local government web resources and services.